カタログに戻る

STARLINK-38102

運用中通信VLEO
NORAD 100023·PAYLOAD·🇺🇸 United States

打ち上げ Jul 14, 2026 から Vandenberg Space Force Base

Loading…

次のパス (今後24時間)

TLE

最新Source: Space-Track

元期: Sep 14, 2026, 14:35 UTC

1 A0023U 26160Y   26257.60765691  .00158733  00000-0  93411-3 0  9990
2 A0023  70.0035 211.6127 0003005 270.7548  89.3308 15.77601275 11063

AllMySatでSTARLINK-38102をリアルタイム追跡

Download on the App Store